sat.trackr.live / text

‹ back to catalog

STARLINK-30840

NORAD 58223 · 2023-170T

PAYLOAD ACTIVE UNKNOWN

§ Identity

Operator
Country
US
Launch date
2023-11-03
Launch site
AFETR
Launch vehicle
Mass (kg)
RCS (m²)

Purposes: comms

External: N2YO · Heavens-Above · Gunter

§ Orbital elements

Epoch: 2026-09-20T01:43:05.719872Z

Period
94.27 min
Inclination
43.0018°
Eccentricity
0.0001073
Mean motion
15.27581150 rev/d
Perigee alt
482.3 km
Apogee alt
483.8 km
Semi-major
6,861.2 km
B*
5.9366e-5
RAAN
176.7885°
Arg perigee
276.5597°
Mean anomaly
83.5132°
Rev number
16,002

§ Raw data

STARLINK-308401 58223U 23170T   26263.07159398  .00001372  00000+0  59366-4 0  99992 58223  43.0018 176.7885 0001073 276.5597  83.5132 15.27581150160028

JSON: /api/v1/satellites/58223 · /tle

For live sub-satellite position, see the globe view (requires WebGL).

§ Visibility from observer

Set your observer location to see the next 7 days of passes ≥ 10°. The values pass through the URL so the page stays shareable.

No JS? Fill the form by hand. The geolocation button needs JavaScript.